sat.trackr.live / text

‹ back to catalog

TJS-25

NORAD 69474 · 2026-129A

PAYLOAD ACTIVE UNKNOWN

§ Identity

Operator
Country
PRC
Launch date
2026-06-11
Launch site
WSC
Launch vehicle
Mass (kg)
RCS (m²)

External: N2YO · Heavens-Above · Gunter

§ Orbital elements

Epoch: 2026-09-20T00:23:08.661408Z

Period
1,436.08 min
Inclination
5.8776°
Eccentricity
0.0004457
Mean motion
1.00272716 rev/d
Perigee alt
35,767.5 km
Apogee alt
35,805.1 km
Semi-major
42,164.5 km
B*
0.0000e+0
RAAN
330.6242°
Arg perigee
277.6369°
Mean anomaly
236.6952°
Rev number
101

§ Raw data

TJS-251 69474U 26129A   26263.01607247 -.00000372  00000+0  00000+0 0  99972 69474   5.8776 330.6242 0004457 277.6369 236.6952  1.00272716  1016

JSON: /api/v1/satellites/69474 · /tle

For live sub-satellite position, see the globe view (requires WebGL).

§ Visibility from observer

Set your observer location to see the next 7 days of passes ≥ 10°. The values pass through the URL so the page stays shareable.

No JS? Fill the form by hand. The geolocation button needs JavaScript.